www.pogodaiklimat.ru

Погода и климат >> Архив погоды >> Греция >> Larissa


ПОГОДА в Larissa

  • Прогноз погоды в Larissa
  • Монитор погоды в Larissa
  • Климат города

АРХИВ ПОГОДЫ в Larissa

Время (UTC), дата Ветер
(напр.,м/с)
 
Видим.   Явления Облачность Т
(С)
Тd
(С)
f
(%)
Тe
(С)
Тes
(С)
Комфортность P
(гПа)
Po
(гПа)
Тmin
(С)
Tmax
(С)
R
(мм)
R24
(мм)
S
(см)
00 5.12 штиль 0
{2}
10 км 6/3 900 м
[Sc diur, vesp Ac und]
+5.6 +4.8 95 +4 +4 1014.7 1006.0
03 5.12 З 2
{4}
10 км 6/3 900 м
[Sc diur, vesp Ac und]
+4.4 +3.8 96 +1 +1 1014.9 1006.2
06 5.12 штиль 0 6000 м дымка 8/6 900 м
[Sc Ac und]
+5.2 +4.5 95 +4 +4 1016.7 1008.0 +3.9
09 5.12 штиль 0
{4}
8000 м дымка 8/6 1050 м
[Sc Ac und]
+9.8 +6.4 79 +9 +10 1018.4 1009.8
12 5.12 З 2
{6}
10 км 5/5 1200 м
[Sc Ac und]
+14.8 +8.6 66 +15 +16 1017.3 1008.9
15 5.12 С 5
{8}
10 км 3/3 600 м
[Sc diur, vesp Ac trans]
+13.2 +2.9 50 +11 +11 1017.5 1009.0
18 5.12 С 5
{9}
10 км 3/3 600 м
[Sc diur, vesp Ac trans]
+10.0 +0.7 52 +7 +7 1019.2 1010.6 +14.9
21 5.12 СЗ 3
{10}
10 км 1/1 600 м
[Sc diur, vesp]
+8.6 -3.7 42 +7 +7 1020.7 1012.1
00 6.12 З 4
{10}
10 км ясно +4.2 -2.2 63 +1 +1 1021.6 1012.9
03 6.12 З 4
{7}
10 км ясно +3.4 -2.9 63 -1 -1 1022.3 1013.5
06 6.12 В 2
{8}
10 км 1/1 600 м
[Sc diur, vesp]
+0.2 -3.9 74 -3 -3 1024.0 1015.1 +0.2
09 6.12 штиль 0
{3}
10 км 3/3 600 м
[Cu hum Ac trans]
+9.0 -2.6 44 +9 +12 1024.4 1015.8
12 6.12 штиль 0
{4}
10 км 3/1 600 м
[Cu hum Ci fib]
+11.0 -3.5 36 +11 +15 1022.4 1013.9
15 6.12 штиль 0
{4}
10 км 5/1 900 м
[Cu hum Ci fib]
+8.6 -3.2 43 +8 +8 1022.2 1013.6
18 6.12 штиль 0
{3}
10 км 3/1 600 м
[Cu hum Ci fib]
+4.4 0.0 73 +4 +4 1023.5 1014.8 +11.4
21 6.12 З 2
{3}
10 км 3/1 600 м
[Cu hum Ci fib]
+2.0 -0.7 82 -1 -1 1024.7 1015.9
00 7.12 штиль 0
{3}
10 км 3/3 600 м
[Cu hum]
+0.6 -1.7 85 -1 -1 1024.8 1015.9
03 7.12 штиль 0
{3}
10 км 3/3 600 м
[Cu hum]
-1.4 -3.0 89 -3 -3 1025.2 1016.2
06 7.12 штиль 0
{3}
10 км 3/3 600 м
[Cu med, cong]
-2.0 -3.2 91 -3 -3 1026.1 1017.1 -2.5
09 7.12 штиль 0
{3}
10 км 1/0
[Ci fib]
+4.6 -1.1 66 +4 +9 1026.1 1017.3
12 7.12 штиль 0
{3}
10 км 1/0
[Ci fib]
+10.2 -1.7 43 +10 +15 1023.4 1014.9
15 7.12 штиль 0
{4}
10 км 4/0
[Ac trans Ci fib]
+10.2 -1.9 43 +10 +10 1022.2 1013.6
18 7.12 штиль 0
{2}
10 км 3/0
[Ac trans]
+5.0 -1.4 63 +4 +4 1021.9 1013.2 +11.1
21 7.12 штиль 0
{3}
10 км 3/0
[Ac trans]
-0.2 -2.3 86 -1 -1 1021.4 1012.5
00 8.12 З 2
{3}
10 км 3/0
[Ac trans]
+0.4 -1.2 89 -3 -3 1019.8 1010.9
03 8.12 штиль 0
{2}
10 км 3/0
[Ac trans]
-1.6 -2.8 92 -3 -3 1018.7 1009.8
06 8.12 штиль 0
{2}
10 км 4/1 600 м
[Cu hum Ac lent Ci fib]
-2.8 -3.5 95 -4 -4 1018.5 1009.6 -2.9
09 8.12 штиль 0
{3}
10 км 5/1 750 м
[Cu hum Ac trans Ci fib]
+6.4 0.0 64 +6 +9 1017.9 1009.2
12 8.12 штиль 0
{4}
10 км 6/3 900 м
[Sc diur, vesp Ac und]
+9.0 +0.8 56 +9 +11 1015.3 1006.7
15 8.12 штиль 0
{3}
10 км 6/1 900 м
[Cu hum Ac und]
+8.0 +1.4 63 +8 +8 1014.3 1005.7
18 8.12 штиль 0
{3}
10 км 5/1 900 м
[Cu hum Ac und]
+6.2 +1.8 73 +5 +5 1013.7 1005.1 +9.2
21 8.12 штиль 0
{3}
10 км слабый дождь 9/4 750 м
[Sc Ac und]
+6.2 +2.6 78 +5 +5 1012.9 1004.3
00 9.12 штиль 0
{3}
10 км слабый дождь 10/5 750 м
[Sc Ac As]
+5.6 +4.5 93 +5 +5 1012.2 1003.5 0.7
03 9.12 штиль 0
{3}
10 км {дождь} 8/4 750 м
[Sc Ac und]
+4.2 +3.6 96 +3 +3 1011.1 1002.4
06 9.12 штиль 0 2000 м дымка {дождь} 4/3 750 м
[Sc diur, vesp Ac und]
+2.2 +2.0 99 +1 +1 1012.0 1003.3 +2.2 0.7
09 9.12 штиль 0
{3}
8000 м дымка 4/1 600 м
[Cu hum Ac trans]
+9.2 +5.8 79 +9 +12 1012.0 1003.5
12 9.12 штиль 0
{3}
8000 м дымка 4/1 600 м
[Cu hum Ac trans]
+12.8 +6.6 66 +12 +16 1009.7 1001.3
15 9.12 штиль 0
{3}
10 км 5/3 600 м
[Cu hum Ac trans]
+13.4 +6.8 64 +13 +13 1008.6 1000.2
18 9.12 штиль 0
{4}
10 км 4/3 600 м
[Cu hum Ac trans]
+6.6 +5.2 91 +6 +6 1009.2 1000.6 +14.3
21 9.12 штиль 0
{4}
10 км 4/3 600 м
[Cu hum Ac trans]
+4.0 +3.0 93 +3 +3 1009.5 1000.9
00 10.12 штиль 0
{4}
10 км 6/3 900 м
[Cu hum Ac und]
+3.8 +2.6 92 +3 +3 1007.8 999.2
03 10.12 штиль 0
{4}
10 км дождь 10/4 750 м
[Sc As op]
+6.2 +5.4 95 +5 +5 1006.6 998.0
06 10.12 штиль 0 8000 м дымка {дождь} 9/4 750 м
[Sc Ac As]
+6.0 +5.6 97 +5 +5 1005.3 996.8 +3.8 5
09 10.12 штиль 0
{4}
8000 м дымка 8/4 900 м
[Sc Ac As]
+8.2 +7.0 92 +7 +9 1005.6 997.1
12 10.12 СЗ 8
{17}
10 км 4/4 600 м
[Sc diur, vesp Ac und]
+12.0 +3.6 56 +9 +9 1004.0 995.7
15 10.12 З 5
{17}
10 км 4/3 600 м
[Sc diur, vesp Ac und]
+11.0 +2.0 54 +9 +9 1006.8 998.4
18 10.12 СЗ 3
{11}
10 км 3/1 600 м
[Sc diur, vesp Ac und]
+9.8 +0.1 51 +8 +8 1008.9 1000.5 +12.6
21 10.12 штиль 0
{4}
10 км 1/1 600 м
[Sc diur, vesp]
+6.6 +0.6 65 +6 +6 1010.6 1002.1
00 11.12 З 3
{4}
10 км 1/1 600 м
[Sc diur, vesp]
+4.2 +0.3 76 +1 +1 1011.8 1003.2
03 11.12 штиль 0
{4}
10 км 1/1 600 м
[Sc diur, vesp]
+3.0 -1.5 72 +2 +2 1012.0 1003.3
06 11.12 штиль 0 10 км 4/1 900 м
[Sc diur, vesp Ac und]
0.0 -5.7 65 -1 -1 1013.8 1005.0 -0.2
09 11.12 штиль 0
{3}
10 км 3/1 600 м
[Sc diur, vesp Ac und]
+7.8 +0.9 62 +7 +11 1014.6 1006.0
12 11.12 штиль 0
{3}
10 км 6/1 900 м
[Sc diur, vesp Ac und Ci fib]
+9.6 -0.9 48 +9 +12 1013.7 1005.2
15 11.12 штиль 0
{3}
10 км 6/1 900 м
[Sc diur, vesp Ac und Ci fib]
+8.2 +0.5 58 +8 +8 1013.9 1005.3
18 11.12 штиль 0
{4}
10 км 6/1 900 м
[Sc diur, vesp Ac und Ci fib]
+4.6 -1.8 63 +4 +4 1015.7 1007.0 +10.0

 

Местоположение метеостанции Larissa (Греция): широта 39.63 долгота 22.42 высота над уровнем моря 74 м.

В архиве по умолчанию представлена погода в Larissa за последнюю неделю. Архивные данные за месяц целиком и за предыдущие месяцы, начиная с января 2011 года, Вы можете получить, выбрав интересующий диапазон дат из раскрывающегося списка и нажав кнопку "Ввод!".


*Определитесь, кто Вы:
робот инопланетянин человек

Внимание! Время в таблицах - всемирное. Для получения местного времени необходимо прибавить поправку, которая в Larissa равна 2 ч.

Смотрите также архив погоды в соседних городах и на ближайших метеорологических станциях:

Погода в Lamia (Греция) (81 км)
Погода в Kozani (Греция) (92 км)
Погода в Thessaloniki (Греция) (110 км)
Погода в Kastoria (Греция) (133 км)
Погода в Ioannina (Греция) (137 км)
Погода в Florina (Греция) (154 км)
Погода в Gevgelija (Македония) (169 км)
Погода в Korca (Албания) (177 км)
Погода в Pretor (Македония) (178 км)
Погода в Bitola (Македония) (181 км)

Пояснения к столбцам:

Ветер - указаны скорость ветра в м/с - средняя за 10 мин, порывы в срок и между сроками (в фигурных скобках) и направление, откуда дует ветер: С - северный, СВ - северо-восточный, В - восточный, ЮВ - юго-восточный, Ю - южный, ЮЗ - юго-западный, З - западный, СЗ - северо-западный.
Видимость - горизонтальная дальность видимости в метрах или километрах. При видимости от 1 до 10 км при отсутствии осадков обычно наблюдается дымка, при ухудшении видимости до 1 км и менее - туман. В сухую погоду видимость может ухудшаться дымом, пылью или мглою.
Явления - указаны атмосферные явления, наблюдавшиеся в срок или в последний час перед сроком; фигурными скобками обозначены явления, наблюдавшиеся между сроками (за 1-3 часа до срока); квадратными скобками обозначены град или гололедные отложения с указанием их диаметра в мм.
Облачность - указаны через наклонную черту общая и нижняя облачность в баллах и высота нижней границы облаков в метрах; квадратными скобками обозначены формы облаков: Ci - перистые, Cs - перисто-слоистые, Cc - перисто-кучевые, Ac - высококучевые, As - высокослоистые, Sc - слоисто-кучевые, Ns - слоисто-дождевые, Cu - кучевые, Cb - кучево-дождевые. Подробнее классификацию облаков см. в Атласе облаков (PDF).
T - Температура воздуха - температура, измеренная на высоте 2 м над землей.
Td - Температура точки росы - температура, при понижении до которой содержащийся в воздухе водяной пар достигнет насыщения.
f - Относительная влажность воздуха - влажноcть воздуха, измеренная на высоте 2 м над землей.
Te - Эффективная температура - температура, которую ощущает одетый по сезону человек в тени. Характеристика душности погоды. При расчете учитывается влияние влажности воздуха и скорости ветра на теплоощущения человека.
Tes - Эффективная температура на солнце - температура, которую ощущает человек, с поправкой на солнечный нагрев. Характеристика знойности погоды. Зависит от высоты солнца над горизонтом, облачности и скорости ветра. Ночью, в пасмурную погоду, а также при ветре 12 м/с и более поправка равна нулю.
P - Атмосферное давление - приведенное к уровню моря атмосферное давление.
Po - Атмосферное давление - измеренное на уровне метеостанции атмосферное давление.
Tmin - Минимальная температура - минимум температуры воздуха на высоте 2 м над землей.
Tmax - Максимальная температура - максимум температуры воздуха на высоте 2 м над землей.
R - Количество осадков - Количество выпавших осадков за период времени, мм. При наведении курсора мыши на число - период времени, за который выпало указанное количество осадков.
R24 - Количество осадков - Количество выпавших осадков за 24 часа, мм.
S - Снежный покров - Высота снежного покрова, см. При наведении курсора мыши на число - состояние снежного покрова и степень покрытия местности в баллах.